Location: ??????
(30.5519°N, 47.7720°E)
Time: 23:20:49
(UTC+00:00)

COSMOS 2406 - Visible Passes

Search period start: 05 May 2021 00:00
Search period end: 15 May 2021 00:00
Orbit: 844 x 863 km, 71.0° (Epoch: 05 May)

Date Brightness Start Highest point End Pass type
(mag) Time Alt. Az. Time Alt. Az. Time Alt. Az.
05 May 5.2 19:32:59 10° NNW 19:35:06 23° N 19:35:06 23° N visible
06 May 5.1 19:21:31 10° NNW 19:23:55 26° N 19:23:55 26° N visible
07 May 4.9 19:10:02 10° NNW 19:12:46 29° N 19:12:46 29° N visible
08 May 4.6 18:58:33 10° NNW 19:01:39 33° N 19:01:39 33° N visible
09 May 4.4 18:47:05 10° NNW 18:50:34 38° N 18:50:34 38° N visible
10 May 4.1 18:35:35 10° NNW 18:39:31 44° N 18:39:31 44° N visible
11 May 3.8 18:24:06 10° NNW 18:28:29 52° N 18:28:29 52° N visible
12 May 3.4 18:12:37 10° NNW 18:17:30 61° NNE 18:17:30 61° NNE visible
13 May 3.2 18:01:08 10° NNW 18:06:33 70° NE 18:06:33 70° NE visible
14 May 3.1 17:49:39 10° NNW 17:55:20 72° ENE 17:55:38 70° E visible
